Location: Arbon
(43.0005°N, 0.7472°E)
Time: 11:56:28
(UTC+00:00)

Courier 1B - All Passes

Search period start: 30 November 2020 00:00
Search period end: 10 December 2020 00:00
Orbit: 962 x 1209 km, 28.3° (Epoch: 29 November)

Date Brightness Start Highest point End Pass type
(mag) Time Alt. Az. Time Alt. Az. Time Alt. Az.
30 Nov - 00:26:07 10° SW 00:31:31 24° S 00:37:09 10° SE night (unlit)
30 Nov - 02:20:41 10° SW 02:24:39 15° SSW 02:28:42 10° SSE night (unlit)
30 Nov - 21:40:12 10° SSW 21:44:50 20° SSE 21:49:39 10° ESE night (unlit)
30 Nov - 23:32:35 10° SW 23:37:55 24° S 23:43:30 10° SE night (unlit)
01 Dec - 01:26:32 10° SW 01:31:03 18° SSW 01:35:43 10° SSE night (unlit)
01 Dec - 20:47:19 10° SSW 20:51:21 17° SSE 20:55:29 10° SE visible
01 Dec - 22:39:09 10° SW 22:44:20 23° S 22:49:45 10° SE night (unlit)
02 Dec - 00:32:39 10° SW 00:37:28 20° SSW 00:42:29 10° SSE night (unlit)
02 Dec - 19:54:45 10° S 19:57:53 14° SSE 20:01:04 10° SE visible
02 Dec - 21:45:50 10° SW 21:50:48 22° S 21:55:57 10° SE night (unlit)
02 Dec - 23:38:55 10° SW 23:43:53 21° S 23:49:03 10° SE night (unlit)
03 Dec - 01:34:22 10° SW 01:36:55 12° SSW 01:39:31 10° S night (unlit)
03 Dec - 19:03:03 10° S 19:04:27 11° SSE 19:05:52 10° SE visible
03 Dec - 20:52:37 10° SW 20:57:17 20° S 21:02:04 10° SE visible
03 Dec - 22:45:19 10° SW 22:50:20 22° S 22:55:32 10° SE night (unlit)
04 Dec - 00:39:48 10° SW 00:43:22 15° SSW 00:47:03 10° SSE night (unlit)
04 Dec - 19:59:34 10° SSW 20:03:47 18° SSE 20:08:07 10° SE visible
04 Dec - 21:51:49 10° SW 21:56:47 23° S 22:01:55 10° SE night (unlit)
04 Dec - 23:45:43 10° SW 23:49:50 17° SSW 23:54:06 10° SSE night (unlit)
05 Dec - 19:06:42 10° SSW 19:10:20 16° SSE 19:14:00 10° SE visible
05 Dec - 20:58:25 10° SW 21:03:16 22° S 21:08:15 10° SE visible
05 Dec - 22:51:52 10° SW 22:56:18 19° SSW 23:00:54 10° SSE night (unlit)
06 Dec - 18:14:12 10° S 18:16:53 13° SSE 18:19:36 10° SE visible
06 Dec - 20:05:05 10° SW 20:09:47 21° S 20:14:32 10° SE visible
06 Dec - 21:58:09 10° SW 22:02:47 20° S 22:07:33 10° SE night (unlit)
06 Dec - 23:53:41 10° SW 23:55:44 11° SSW 23:57:50 10° S night (unlit)
07 Dec - 19:11:52 10° SW 19:16:18 19° S 19:20:45 10° SE visible
07 Dec - 21:04:33 10° SW 21:09:16 21° S 21:14:07 10° SE visible
07 Dec - 22:59:03 10° SW 23:02:15 14° SSW 23:05:31 10° S night (unlit)
08 Dec - 18:18:45 10° SSW 18:22:50 17° SSE 18:26:53 10° SE visible
08 Dec - 20:11:01 10° SW 20:15:47 22° S 20:20:37 10° SE visible
08 Dec - 22:04:56 10° SW 22:08:45 16° SSW 22:12:40 10° SSE night (unlit)
09 Dec - 17:25:51 10° SSW 17:29:22 15° SSE 17:32:51 10° SE visible
09 Dec - 19:17:34 10° SW 19:22:18 21° S 19:27:02 10° SE visible
09 Dec - 21:11:03 10° SW 21:15:17 18° SSW 21:19:34 10° SSE visible
